Location: Davayat
(45.9471°N, 3.1105°E)
Time: 17:12:27
(UTC+00:00)

NOAA 11 - Pass Details

Date: 01 December 2020
Orbit: 834 x 849 km, 98.4° (Epoch: 17 January)

Event Time Altitude Azimuth Distance (km) Brightness Sun altitude
Rises 17:41:09 0° 171° (S) 3,368 7.4 -16.3°
Reaches altitude 10° 17:43:30 10° 173° (S) 2,439 6.7 -16.7°
Maximum altitude 17:48:54 71° 258° (WSW) 888 4.5 -17.6°
Drops below altitude 10° 17:54:21 10° 342° (NNW) 2,464 6.7 -18.5°
Sets 17:56:45 0° 345° (NNW) 3,405 7.4 -18.9°
